Regional Weather Roundup
Issued by NWS Goodland, KS

Home | Current Version | Previous Version | Graphics & Text | Print | Product List | Glossary On
Versions: 1 2 3 4 5 6 7 8 9 10 11 12 13 14 15 16 17 18 19 20 21 22 23 24 25 26 27 28 29 30 31 32 33 34 35 36 37 38 39 40 41 42 43 44 45 46 47 48 49 50
000
ASUS43 KGLD 190359
RWRGLD

GOODLAND FORECAST AREA HOURLY WEATHER ROUNDUP
NATIONAL WEATHER SERVICE GOODLAND KS
1000 PM MDT FRI AUG 18 2017

...OFFICIAL OBSERVATIONS...

CITY           SKY/WX    TMP DP  RH WIND       PRES   REMARKS
GOODLAND KS    FAIR      67  57  70 S12       30.10R
HILL CITY KS   FAIR      65  62  90 CALM      30.02S
IMPERIAL NEB   FAIR      71  51  49 S10       30.06R
MCCOOK NEB     FAIR      67  59  75 SW8       30.02S
AKRON CO       FAIR      68  48  48 S14       30.13R
BURLINGTON CO  FAIR      66  56  70 SE9       30.13R
LIMON CO       FAIR      59  54  83 CALM      30.19R
$$

...UNOFFICIAL OBSERVATIONS...

CITY           SKY/WX    TMP DP  RH WIND       PRES   REMARKS
LENORA KS        N/A     72  32  23 CALM        N/A
NORTON KS      CLEAR     66  57  72 SW5       30.02R
SHARON SPRINGS   N/A     70  58  64 E8          N/A
TRENTON NEB      N/A     67  32  27 CALM        N/A
KIT CARSON CO    N/A     66  56  71 CALM        N/A
YUMA CO        FAIR      61  41  48 SE6       30.10S
$$




USA.gov is the U.S. government's official web portal to all federal, state and local government web resources and services.